User: anonymous   Login
Location: Unspecified
(0.0000°N, 0.0000°E)
Time: 11:24:59
(UTC+00:00)
Language:

UNIFORM 1 - Orbit

View from above orbital plane
View from above orbital plane
View from above satellite
View from above satellite

Ground track
Ground track

The orbit data is extracted from the following two-line orbital elements,

1 39767U 14029B   18290.17301786  .00000168  00000-0  26710-4 0  9996
2 39767  97.8615  23.5861 0006393 140.3483 219.8225 14.83633056238167
Epoch (UTC): 17 October 2018 04:09:08
Eccentricity: 0.0006393
inclination: 97.8615°
perigee height: 613 km
apogee height: 622 km
right ascension of ascending node: 23.5861°
argument of perigee: 140.3483°
revolutions per day: 14.83633056
mean anomaly at epoch: 219.8225°
orbit number at epoch: 23816

The dashed part of the orbit path shows where the satellite is in the earth's shadow,  

DLR